| time (UTC) | temp F | wind direction | speed MPH | gust MPH | rain 1hr in | rain 24hr in | rain mn in | humidity % | barometer mb |
| 20260506134318 | 46 | 130 | 0.0 | 2.0 | 0.00 | 0.00 | 0.00 | 59 | 1013.5 |
| 20260506133851 | 46 | 62 | 0.0 | 2.0 | 0.00 | 0.00 | 0.00 | 61 | 1013.5 |
| 20260506133326 | 45 | 61 | 1.0 | 2.0 | 0.00 | 0.00 | 0.00 | 62 | 1013.5 |
| 20260506132819 | 45 | 140 | 1.0 | 2.0 | 0.00 | 0.00 | 0.00 | 63 | 1013.5 |
| 20260506132331 | 45 | 92 | 1.0 | 2.0 | 0.00 | 0.00 | 0.00 | 63 | 1013.3 |
| 20260506131827 | 44 | 92 | 0.0 | 2.0 | 0.00 | 0.00 | 0.00 | 65 | 1013.3 |
| 20260506131401 | 44 | 97 | 0.0 | 2.0 | 0.00 | 0.00 | 0.00 | 64 | 1013.2 |
| 20260506130829 | 43 | 92 | 0.0 | 2.0 | 0.00 | 0.00 | 0.00 | 65 | 1013.3 |
| 20260506130322 | 43 | 81 | 0.0 | 1.0 | 0.00 | 0.00 | 0.00 | 66 | 1013.3 |
| 20260506125835 | 43 | 81 | 0.0 | 3.0 | 0.00 | 0.00 | 0.00 | 66 | 1013.3 |
| 20260506125328 | 42 | 81 | 1.0 | 3.0 | 0.00 | 0.00 | 0.00 | 67 | 1013.2 |
| 20260506124816 | 42 | 73 | 1.0 | 3.0 | 0.00 | 0.00 | 0.00 | 67 | 1013.3 |
| 20260506124333 | 41 | 67 | 1.0 | 3.0 | 0.00 | 0.00 | 0.00 | 67 | 1013.2 |
| 20260506123828 | 41 | 69 | 1.0 | 3.0 | 0.00 | 0.00 | 0.00 | 67 | 1013.3 |
| 20260506123323 | 41 | 67 | 2.0 | 3.0 | 0.00 | 0.00 | 0.00 | 68 | 1013.2 |
| 20260506122820 | 40 | 76 | 2.0 | 4.0 | 0.00 | 0.00 | 0.00 | 69 | 1013.3 |
| 20260506122334 | 40 | 72 | 2.0 | 4.0 | 0.00 | 0.00 | 0.00 | 69 | 1013.2 |
| 20260506121827 | 39 | 76 | 2.0 | 3.0 | 0.00 | 0.00 | 0.00 | 69 | 1013.2 |
| 20260506121334 | 39 | 74 | 2.0 | 3.0 | 0.00 | 0.00 | 0.00 | 70 | 1013.2 |
| 20260506120849 | 39 | 72 | 2.0 | 4.0 | 0.00 | 0.00 | 0.00 | 70 | 1013.1 |
| 20260506120325 | 39 | 69 | 2.0 | 4.0 | 0.00 | 0.00 | 0.00 | 70 | 1013.1 |
| 20260506115836 | 38 | 67 | 2.0 | 4.0 | 0.00 | 0.00 | 0.00 | 70 | 1013.0 |
| 20260506115325 | 38 | 71 | 2.0 | 4.0 | 0.00 | 0.00 | 0.00 | 71 | 1012.9 |
| 20260506114830 | 38 | 71 | 3.0 | 4.0 | 0.00 | 0.00 | 0.00 | 71 | 1012.9 |
| 20260506114328 | 38 | 76 | 2.0 | 4.0 | 0.00 | 0.00 | 0.00 | 71 | 1012.8 |
| 20260506113842 | 37 | 71 | 3.0 | 4.0 | 0.00 | 0.00 | 0.00 | 71 | 1012.8 |
| 20260506113317 | 37 | 75 | 3.0 | 4.0 | 0.00 | 0.00 | 0.00 | 72 | 1012.6 |
| 20260506112834 | 37 | 72 | 3.0 | 3.0 | 0.00 | 0.00 | 0.00 | 72 | 1012.4 |
| 20260506112327 | 37 | 71 | 2.0 | 3.0 | 0.00 | 0.00 | 0.00 | 72 | 1012.4 |
| 20260506111832 | 37 | 72 | 2.0 | 4.0 | 0.00 | 0.00 | 0.00 | 72 | 1012.2 |
| 20260506111329 | 37 | 73 | 3.0 | 4.0 | 0.00 | 0.00 | 0.00 | 72 | 1012.2 |
| 20260506110840 | 38 | 68 | 3.0 | 4.0 | 0.00 | 0.00 | 0.00 | 71 | 1012.1 |
| 20260506110342 | 38 | 70 | 3.0 | 4.0 | 0.00 | 0.00 | 0.00 | 71 | 1012.1 |
| 20260506105854 | 38 | 70 | 3.0 | 4.0 | 0.00 | 0.00 | 0.00 | 71 | 1012.1 |
| 20260506105328 | 38 | 67 | 3.0 | 5.0 | 0.00 | 0.00 | 0.00 | 71 | 1011.9 |
| 20260506104837 | 38 | 67 | 3.0 | 5.0 | 0.00 | 0.00 | 0.00 | 71 | 1011.9 |
| 20260506104332 | 39 | 69 | 3.0 | 4.0 | 0.00 | 0.00 | 0.00 | 70 | 1012.0 |
| 20260506103827 | 39 | 78 | 2.0 | 4.0 | 0.00 | 0.00 | 0.00 | 70 | 1012.0 |
| 20260506103332 | 39 | 71 | 2.0 | 3.0 | 0.00 | 0.00 | 0.00 | 70 | 1012.0 |
| 20260506102828 | 39 | 65 | 2.0 | 3.0 | 0.00 | 0.00 | 0.00 | 70 | 1012.0 |
| 20260506102322 | 39 | 70 | 2.0 | 3.0 | 0.00 | 0.00 | 0.00 | 69 | 1012.0 |
| 20260506101838 | 40 | 65 | 2.0 | 3.0 | 0.00 | 0.00 | 0.00 | 69 | 1012.0 |
| 20260506101334 | 40 | 65 | 2.0 | 3.0 | 0.00 | 0.00 | 0.00 | 70 | 1012.0 |
| 20260506100828 | 40 | 63 | 1.0 | 2.0 | 0.00 | 0.00 | 0.00 | 69 | 1012.2 |
| 20260506100325 | 40 | 63 | 0.0 | 3.0 | 0.00 | 0.00 | 0.00 | 70 | 1012.2 |
| 20260506095843 | 40 | 63 | 2.0 | 3.0 | 0.00 | 0.00 | 0.00 | 70 | 1012.0 |
| 20260506095337 | 40 | 11 | 1.0 | 3.0 | 0.00 | 0.00 | 0.00 | 70 | 1012.1 |
| 20260506094829 | 40 | 68 | 1.0 | 3.0 | 0.00 | 0.00 | 0.00 | 69 | 1012.1 |
| 20260506094346 | 40 | 72 | 2.0 | 3.0 | 0.00 | 0.00 | 0.00 | 69 | 1012.0 |
| 20260506093830 | 40 | 59 | 1.0 | 3.0 | 0.00 | 0.00 | 0.00 | 69 | 1012.0 |
| 20260506093334 | 40 | 69 | 1.0 | 2.0 | 0.00 | 0.00 | 0.00 | 68 | 1011.9 |
| 20260506092818 | 40 | 67 | 1.0 | 2.0 | 0.00 | 0.00 | 0.00 | 67 | 1012.0 |
| 20260506092333 | 40 | 65 | 1.0 | 3.0 | 0.00 | 0.00 | 0.00 | 67 | 1011.9 |
| 20260506091819 | 41 | 61 | 1.0 | 3.0 | 0.00 | 0.00 | 0.00 | 66 | 1011.8 |
| 20260506091332 | 41 | 63 | 2.0 | 3.0 | 0.00 | 0.00 | 0.00 | 65 | 1011.7 |
| 20260506090820 | 41 | 53 | 1.0 | 2.0 | 0.00 | 0.00 | 0.00 | 65 | 1011.7 |
| 20260506090354 | 41 | 61 | 1.0 | 2.0 | 0.00 | 0.00 | 0.00 | 65 | 1011.6 |
| 20260506085825 | 41 | 54 | 1.0 | 2.0 | 0.00 | 0.00 | 0.00 | 64 | 1011.6 |
| 20260506085321 | 41 | 57 | 1.0 | 2.0 | 0.00 | 0.00 | 0.00 | 64 | 1011.6 |
| 20260506084816 | 41 | 67 | 2.0 | 2.0 | 0.00 | 0.00 | 0.00 | 64 | 1011.5 |
| 20260506084332 | 41 | 67 | 1.0 | 2.0 | 0.00 | 0.00 | 0.00 | 63 | 1011.4 |
| 20260506083817 | 42 | 60 | 1.0 | 2.0 | 0.00 | 0.00 | 0.00 | 63 | 1011.4 |
| 20260506083334 | 42 | 9 | 1.0 | 3.0 | 0.00 | 0.00 | 0.00 | 63 | 1011.4 |
| 20260506082847 | 42 | 51 | 1.0 | 3.0 | 0.00 | 0.00 | 0.00 | 63 | 1011.3 |
| 20260506082357 | 42 | 69 | 1.0 | 2.0 | 0.00 | 0.00 | 0.00 | 63 | 1011.3 |
| 20260506081846 | 42 | 331 | 1.0 | 3.0 | 0.00 | 0.00 | 0.00 | 63 | 1011.3 |
| 20260506081319 | 42 | 52 | 1.0 | 3.0 | 0.00 | 0.00 | 0.00 | 64 | 1011.3 |
| 20260506080851 | 42 | 5 | 1.0 | 2.0 | 0.00 | 0.00 | 0.00 | 65 | 1011.4 |
| 20260506080320 | 43 | 39 | 1.0 | 2.0 | 0.00 | 0.00 | 0.00 | 65 | 1011.4 |
| 20260506073320 | 44 | 324 | 0.0 | 2.0 | 0.00 | 0.00 | 0.00 | 67 | 1011.4 |
| 20260506072835 | 44 | 302 | 1.0 | 2.0 | 0.00 | 0.00 | 0.00 | 67 | 1011.6 |
| 20260506072324 | 44 | 355 | 0.0 | 3.0 | 0.00 | 0.00 | 0.00 | 67 | 1011.6 |
| 20260506071815 | 43 | 5 | 1.0 | 3.0 | 0.00 | 0.00 | 0.00 | 66 | 1011.5 |
| 20260506071331 | 43 | 330 | 1.0 | 4.0 | 0.00 | 0.00 | 0.00 | 66 | 1011.5 |
| 20260506070825 | 43 | 298 | 0.0 | 4.0 | 0.00 | 0.00 | 0.00 | 65 | 1011.5 |
| 20260506070355 | 44 | 300 | 1.0 | 4.0 | 0.00 | 0.00 | 0.00 | 64 | 1011.3 |
| 20260506062314 | 44 | 296 | 2.0 | 4.0 | 0.00 | 0.00 | 0.00 | 62 | 1011.3 |
| 20260506061829 | 44 | 329 | 1.0 | 3.0 | 0.00 | 0.00 | 0.00 | 62 | 1011.3 |
| 20260506061327 | 44 | 330 | 1.0 | 2.0 | 0.00 | 0.00 | 0.00 | 61 | 1011.3 |
| 20260506060820 | 44 | 21 | 0.0 | 3.0 | 0.00 | 0.00 | 0.00 | 61 | 1011.3 |
| 20260506060317 | 44 | 317 | 1.0 | 3.0 | 0.00 | 0.00 | 0.00 | 61 | 1011.6 |
| 20260506051328 | 44 | 323 | 1.0 | 2.0 | 0.00 | 0.00 | 0.00 | 64 | 1011.5 |
| 20260506050818 | 44 | 19 | 0.0 | 1.0 | 0.00 | 0.00 | 0.00 | 64 | 1011.6 |
| 20260506050332 | 44 | 19 | 0.0 | 1.0 | 0.00 | 0.00 | 0.00 | 65 | 1011.6 |
| 20260506044831 | 44 | 19 | 0.0 | 1.0 | 0.00 | 0.00 | 0.00 | 66 | 1011.3 |
| 20260506044327 | 44 | 19 | 0.0 | 1.0 | 0.00 | 0.00 | 0.00 | 65 | 1011.2 |
| 20260506043817 | 44 | 19 | 0.0 | 1.0 | 0.00 | 0.00 | 0.00 | 65 | 1011.1 |
| 20260506043334 | 44 | 22 | 0.0 | 1.0 | 0.00 | 0.00 | 0.00 | 65 | 1011.1 |
| 20260506042830 | 44 | 22 | 0.0 | 2.0 | 0.00 | 0.00 | 0.00 | 65 | 1011.2 |
| 20260506042324 | 44 | 24 | 0.0 | 2.0 | 0.00 | 0.00 | 0.00 | 66 | 1011.1 |
| 20260506041858 | 44 | 295 | 1.0 | 1.0 | 0.00 | 0.00 | 0.00 | 66 | 1011.1 |
| 20260506041328 | 44 | 294 | 0.0 | 1.0 | 0.00 | 0.00 | 0.00 | 66 | 1011.3 |
| 20260506040818 | 44 | 294 | 0.0 | 1.0 | 0.00 | 0.00 | 0.00 | 66 | 1011.3 |
| 20260506040328 | 44 | 294 | 0.0 | 0.0 | 0.00 | 0.00 | 0.00 | 66 | 1011.4 |
| 20260506035837 | 44 | 294 | 0.0 | 1.0 | 0.00 | 0.00 | 0.00 | 66 | 1011.3 |
| 20260506035351 | 44 | 294 | 0.0 | 1.0 | 0.00 | 0.00 | 0.00 | 66 | 1011.2 |
| 20260506034825 | 44 | 294 | 0.0 | 1.0 | 0.00 | 0.00 | 0.00 | 67 | 1011.2 |
| 20260506034337 | 44 | 294 | 0.0 | 1.0 | 0.00 | 0.00 | 0.00 | 67 | 1011.2 |
| 20260506033826 | 44 | 294 | 0.0 | 1.0 | 0.00 | 0.00 | 0.00 | 67 | 1011.2 |
| 20260506033320 | 44 | 284 | 0.0 | 1.0 | 0.00 | 0.00 | 0.00 | 66 | 1011.2 |
| 20260506032835 | 45 | 284 | 0.0 | 1.0 | 0.00 | 0.00 | 0.00 | 66 | 1011.2 |
| 20260506032328 | 45 | 285 | 0.0 | 1.0 | 0.00 | 0.00 | 0.00 | 66 | 1011.4 |
| 20260506031824 | 45 | 284 | 0.0 | 1.0 | 0.00 | 0.00 | 0.00 | 65 | 1011.5 |
| 20260506031401 | 45 | 279 | 0.0 | 1.0 | 0.00 | 0.00 | 0.00 | 66 | 1011.4 |
| 20260506030828 | 46 | 279 | 0.0 | 0.0 | 0.00 | 0.00 | 0.00 | 65 | 1011.4 |
| 20260506030322 | 46 | 279 | 0.0 | 0.0 | 0.00 | 0.00 | 0.00 | 65 | 1011.3 |
| 20260506025855 | 45 | 279 | 0.0 | 1.0 | 0.00 | 0.00 | 0.00 | 65 | 1011.2 |
| 20260506025339 | 46 | 279 | 0.0 | 1.0 | 0.00 | 0.00 | 0.00 | 65 | 1011.1 |
| 20260506024828 | 45 | 279 | 0.0 | 1.0 | 0.00 | 0.00 | 0.00 | 65 | 1011.1 |
| 20260506024323 | 45 | 279 | 0.0 | 1.0 | 0.00 | 0.00 | 0.00 | 65 | 1011.1 |
| 20260506023817 | 45 | 279 | 0.0 | 2.0 | 0.00 | 0.00 | 0.00 | 64 | 1010.9 |
| 20260506023333 | 45 | 279 | 0.0 | 3.0 | 0.00 | 0.00 | 0.00 | 64 | 1010.9 |
| 20260506022829 | 46 | 279 | 1.0 | 3.0 | 0.00 | 0.00 | 0.00 | 64 | 1010.8 |
| 20260506022333 | 46 | 279 | 2.0 | 3.0 | 0.00 | 0.00 | 0.00 | 63 | 1010.8 |
| 20260506021830 | 46 | 275 | 1.0 | 2.0 | 0.00 | 0.00 | 0.00 | 64 | 1010.6 |
| 20260506021341 | 46 | 252 | 1.0 | 2.0 | 0.00 | 0.00 | 0.00 | 63 | 1010.5 |
| 20260506020835 | 46 | 232 | 1.0 | 2.0 | 0.00 | 0.00 | 0.00 | 63 | 1010.3 |
| 20260506020328 | 46 | 227 | 1.0 | 2.0 | 0.00 | 0.00 | 0.00 | 62 | 1010.4 |
| 20260506015819 | 46 | 212 | 1.0 | 1.0 | 0.00 | 0.00 | 0.00 | 62 | 1010.3 |
| 20260506015332 | 47 | 212 | 0.0 | 0.0 | 0.00 | 0.00 | 0.00 | 61 | 1010.2 |
| 20260506014829 | 46 | 212 | 0.0 | 1.0 | 0.00 | 0.00 | 0.00 | 61 | 1010.2 |
| 20260506014319 | 46 | 212 | 0.0 | 1.0 | 0.00 | 0.00 | 0.00 | 61 | 1010.1 |
| 20260506013830 | 46 | 212 | 0.0 | 1.0 | 0.00 | 0.00 | 0.00 | 61 | 1010.2 |
| 20260506013324 | 46 | 213 | 0.0 | 2.0 | 0.00 | 0.00 | 0.00 | 60 | 1010.1 |
| 20260506012821 | 46 | 213 | 1.0 | 2.0 | 0.00 | 0.00 | 0.00 | 60 | 1010.1 |
| 20260506012331 | 46 | 239 | 1.0 | 2.0 | 0.00 | 0.00 | 0.00 | 60 | 1010.0 |
| 20260506011845 | 46 | 239 | 1.0 | 2.0 | 0.00 | 0.00 | 0.00 | 60 | 1009.8 |
| 20260506011320 | 46 | 239 | 0.0 | 2.0 | 0.00 | 0.00 | 0.00 | 60 | 1009.9 |
| 20260506010858 | 46 | 218 | 0.0 | 1.0 | 0.00 | 0.00 | 0.00 | 59 | 1009.8 |
| 20260506010358 | 46 | 219 | 0.0 | 2.0 | 0.00 | 0.00 | 0.00 | 59 | 1009.7 |
| 20260506005826 | 46 | 218 | 0.0 | 3.0 | 0.00 | 0.00 | 0.00 | 58 | 1009.7 |
| 20260506005332 | 46 | 218 | 1.0 | 3.0 | 0.00 | 0.00 | 0.00 | 58 | 1009.8 |
| 20260506004824 | 47 | 223 | 2.0 | 3.0 | 0.00 | 0.00 | 0.00 | 57 | 1009.7 |
| 20260506004319 | 47 | 205 | 1.0 | 3.0 | 0.00 | 0.00 | 0.00 | 56 | 1009.8 |
| 20260506003833 | 47 | 231 | 1.0 | 3.0 | 0.00 | 0.00 | 0.00 | 56 | 1009.6 |
| 20260506003348 | 47 | 236 | 1.0 | 4.0 | 0.00 | 0.00 | 0.00 | 57 | 1009.7 |
| 20260506002839 | 47 | 234 | 1.0 | 4.0 | 0.00 | 0.00 | 0.00 | 57 | 1009.7 |
| 20260506002324 | 47 | 157 | 1.0 | 5.0 | 0.00 | 0.00 | 0.00 | 57 | 1009.7 |
| 20260506001838 | 47 | 219 | 3.0 | 5.0 | 0.00 | 0.00 | 0.00 | 56 | 1009.7 |
| 20260506001335 | 48 | 213 | 2.0 | 5.0 | 0.00 | 0.00 | 0.00 | 56 | 1009.8 |
| 20260506000830 | 48 | 202 | 1.0 | 5.0 | 0.00 | 0.00 | 0.00 | 56 | 1009.6 |
| 20260506000326 | 48 | 227 | 1.0 | 5.0 | 0.00 | 0.00 | 0.00 | 58 | 1009.7 |
| 20260505235817 | 48 | 207 | 2.0 | 6.0 | 0.00 | 0.00 | 0.00 | 56 | 1009.8 |
| 20260505235315 | 48 | 243 | 2.0 | 6.0 | 0.00 | 0.00 | 0.00 | 57 | 1009.8 |
| 20260505234833 | 48 | 221 | 2.0 | 4.0 | 0.00 | 0.00 | 0.00 | 57 | 1009.8 |
| 20260505234327 | 48 | 217 | 2.0 | 5.0 | 0.00 | 0.00 | 0.00 | 57 | 1009.7 |
| 20260505233823 | 48 | 183 | 2.0 | 6.0 | 0.00 | 0.00 | 0.00 | 56 | 1009.8 |
| 20260505233336 | 48 | 243 | 4.0 | 6.0 | 0.00 | 0.00 | 0.00 | 56 | 1009.8 |
| 20260505232841 | 48 | 215 | 3.0 | 8.0 | 0.00 | 0.00 | 0.00 | 55 | 1009.6 |
| 20260505232337 | 49 | 225 | 4.0 | 8.0 | 0.00 | 0.00 | 0.00 | 55 | 1009.6 |
| 20260505231833 | 49 | 266 | 2.0 | 6.0 | 0.00 | 0.00 | 0.00 | 55 | 1009.6 |
| 20260505231325 | 50 | 210 | 3.0 | 6.0 | 0.00 | 0.00 | 0.00 | 54 | 1009.6 |
| 20260505230839 | 49 | 202 | 3.0 | 7.0 | 0.00 | 0.00 | 0.00 | 55 | 1009.5 |
| 20260505230322 | 49 | 223 | 2.0 | 8.0 | 0.00 | 0.00 | 0.00 | 55 | 1009.4 |
| 20260505225833 | 49 | 224 | 3.0 | 8.0 | 0.00 | 0.00 | 0.00 | 56 | 1009.4 |
| 20260505225326 | 49 | 211 | 3.0 | 5.0 | 0.00 | 0.00 | 0.00 | 56 | 1009.4 |
| 20260505224822 | 49 | 203 | 3.0 | 5.0 | 0.00 | 0.00 | 0.00 | 55 | 1009.5 |
| 20260505224332 | 50 | 211 | 3.0 | 5.0 | 0.00 | 0.00 | 0.00 | 55 | 1009.5 |
| 20260505223818 | 50 | 272 | 2.0 | 5.0 | 0.00 | 0.00 | 0.00 | 56 | 1009.5 |
| 20260505223329 | 50 | 200 | 3.0 | 6.0 | 0.00 | 0.00 | 0.00 | 57 | 1009.4 |
| 20260505222854 | 50 | 209 | 3.0 | 6.0 | 0.00 | 0.00 | 0.00 | 57 | 1009.5 |
| 20260505222322 | 50 | 213 | 2.0 | 7.0 | 0.00 | 0.00 | 0.00 | 56 | 1009.4 |
| 20260505221819 | 50 | 195 | 3.0 | 8.0 | 0.00 | 0.00 | 0.00 | 55 | 1009.5 |
| 20260505221338 | 50 | 190 | 3.0 | 8.0 | 0.00 | 0.00 | 0.00 | 56 | 1009.4 |
| 20260505220828 | 50 | 232 | 2.0 | 6.0 | 0.00 | 0.00 | 0.00 | 56 | 1009.4 |
| 20260505220321 | 50 | 217 | 3.0 | 8.0 | 0.00 | 0.00 | 0.00 | 55 | 1009.4 |
| 20260505215834 | 50 | 148 | 4.0 | 8.0 | 0.00 | 0.00 | 0.00 | 54 | 1009.4 |
| 20260505215320 | 50 | 247 | 4.0 | 8.0 | 0.00 | 0.00 | 0.00 | 55 | 1009.4 |
| 20260505214852 | 50 | 206 | 5.0 | 8.0 | 0.00 | 0.00 | 0.00 | 54 | 1009.3 |
| 20260505214320 | 50 | 202 | 3.0 | 9.0 | 0.00 | 0.00 | 0.00 | 56 | 1009.4 |
| 20260505213815 | 50 | 173 | 4.0 | 9.0 | 0.00 | 0.00 | 0.00 | 56 | 1009.3 |
| 20260505213332 | 50 | 238 | 6.0 | 10.0 | 0.00 | 0.00 | 0.00 | 55 | 1009.4 |
| 20260505212829 | 50 | 202 | 4.0 | 10.0 | 0.00 | 0.00 | 0.00 | 56 | 1009.3 |
| 20260505212318 | 50 | 242 | 5.0 | 10.0 | 0.00 | 0.00 | 0.00 | 57 | 1009.4 |
| 20260505211832 | 50 | 238 | 6.0 | 10.0 | 0.00 | 0.00 | 0.00 | 57 | 1009.4 |
| 20260505211326 | 50 | 200 | 6.0 | 10.0 | 0.00 | 0.00 | 0.00 | 58 | 1009.3 |
| 20260505210820 | 50 | 215 | 5.0 | 11.0 | 0.00 | 0.00 | 0.00 | 58 | 1009.5 |
| 20260505210336 | 49 | 224 | 7.0 | 11.0 | 0.00 | 0.00 | 0.00 | 57 | 1009.4 |
| 20260505205830 | 49 | 232 | 7.0 | 11.0 | 0.00 | 0.00 | 0.00 | 57 | 1009.5 |
| 20260505205326 | 49 | 224 | 6.0 | 11.0 | 0.00 | 0.00 | 0.00 | 60 | 1009.4 |
| 20260505204821 | 49 | 253 | 5.0 | 11.0 | 0.00 | 0.00 | 0.00 | 61 | 1009.4 |
| 20260505204332 | 48 | 230 | 5.0 | 10.0 | 0.00 | 0.00 | 0.00 | 61 | 1009.5 |
| 20260505203903 | 48 | 231 | 7.0 | 10.0 | 0.00 | 0.00 | 0.00 | 60 | 1009.6 |
| 20260505203326 | 48 | 218 | 6.0 | 10.0 | 0.00 | 0.00 | 0.00 | 62 | 1009.6 |
| 20260505202840 | 48 | 183 | 6.0 | 9.0 | 0.00 | 0.00 | 0.00 | 62 | 1009.6 |
| 20260505202332 | 48 | 227 | 5.0 | 10.0 | 0.00 | 0.00 | 0.00 | 62 | 1009.6 |
| 20260505201827 | 49 | 218 | 5.0 | 9.0 | 0.00 | 0.00 | 0.00 | 62 | 1009.7 |
| 20260505201336 | 49 | 170 | 4.0 | 10.0 | 0.00 | 0.00 | 0.00 | 63 | 1009.6 |
| 20260505200840 | 48 | 244 | 4.0 | 10.0 | 0.00 | 0.00 | 0.00 | 64 | 1009.6 |
| 20260505200328 | 48 | 204 | 7.0 | 10.0 | 0.00 | 0.00 | 0.00 | 62 | 1009.6 |
| 20260505195821 | 48 | 241 | 6.0 | 10.0 | 0.00 | 0.00 | 0.00 | 62 | 1009.7 |
| 20260505195335 | 48 | 264 | 8.0 | 10.0 | 0.00 | 0.00 | 0.00 | 61 | 1009.7 |
| 20260505194828 | 49 | 207 | 5.0 | 9.0 | 0.00 | 0.00 | 0.00 | 61 | 1009.6 |
| 20260505194324 | 49 | 227 | 5.0 | 8.0 | 0.00 | 0.00 | 0.00 | 61 | 1009.7 |
| 20260505193820 | 48 | 167 | 5.0 | 8.0 | 0.00 | 0.00 | 0.00 | 61 | 1009.4 |
| 20260505193356 | 48 | 207 | 5.0 | 8.0 | 0.00 | 0.00 | 0.00 | 61 | 1009.6 |
| 20260505192828 | 49 | 209 | 5.0 | 8.0 | 0.00 | 0.00 | 0.00 | 60 | 1009.5 |
| 20260505192340 | 49 | 192 | 5.0 | 9.0 | 0.00 | 0.00 | 0.00 | 60 | 1009.6 |
| 20260505191814 | 49 | 206 | 4.0 | 9.0 | 0.00 | 0.00 | 0.00 | 60 | 1009.4 |
| 20260505191331 | 49 | 246 | 4.0 | 8.0 | 0.00 | 0.00 | 0.00 | 61 | 1009.5 |
| 20260505190827 | 49 | 185 | 3.0 | 7.0 | 0.00 | 0.00 | 0.00 | 62 | 1009.4 |
| 20260505190319 | 48 | 126 | 5.0 | 8.0 | 0.00 | 0.00 | 0.00 | 58 | 1009.4 |
| 20260505185852 | 49 | 216 | 4.0 | 8.0 | 0.00 | 0.00 | 0.00 | 61 | 1009.3 |
| 20260505185336 | 48 | 200 | 5.0 | 8.0 | 0.00 | 0.00 | 0.00 | 60 | 1009.4 |
| 20260505184830 | 49 | 219 | 4.0 | 7.0 | 0.00 | 0.00 | 0.00 | 61 | 1009.4 |
| 20260505184347 | 48 | 241 | 3.0 | 6.0 | 0.00 | 0.00 | 0.00 | 63 | 1009.3 |
| 20260505183821 | 48 | 234 | 3.0 | 8.0 | 0.00 | 0.00 | 0.00 | 62 | 1009.2 |
| 20260505183330 | 48 | 217 | 5.0 | 8.0 | 0.00 | 0.00 | 0.00 | 61 | 1009.2 |
| 20260505182825 | 48 | 210 | 3.0 | 7.0 | 0.00 | 0.00 | 0.00 | 60 | 1009.3 |
| 20260505182340 | 48 | 167 | 4.0 | 7.0 | 0.00 | 0.00 | 0.00 | 61 | 1009.5 |
| 20260505181827 | 48 | 226 | 3.0 | 6.0 | 0.00 | 0.00 | 0.00 | 62 | 1009.4 |
| 20260505181324 | 48 | 218 | 4.0 | 8.0 | 0.00 | 0.00 | 0.00 | 61 | 1009.5 |
| 20260505180838 | 48 | 216 | 4.0 | 8.0 | 0.00 | 0.00 | 0.00 | 59 | 1009.4 |
| 20260505180324 | 48 | 239 | 4.0 | 6.0 | 0.00 | 0.00 | 0.00 | 59 | 1009.5 |
| 20260505175840 | 48 | 204 | 5.0 | 6.0 | 0.00 | 0.00 | 0.00 | 59 | 1009.5 |
| 20260505175330 | 48 | 270 | 4.0 | 6.0 | 0.00 | 0.00 | 0.00 | 58 | 1009.3 |
| 20260505174834 | 48 | 209 | 4.0 | 6.0 | 0.00 | 0.00 | 0.00 | 60 | 1009.0 |
| 20260505174330 | 48 | 213 | 4.0 | 7.0 | 0.00 | 0.00 | 0.00 | 61 | 1009.1 |
| 20260505173825 | 48 | 227 | 3.0 | 7.0 | 0.00 | 0.00 | 0.00 | 59 | 1008.9 |
| 20260505173316 | 48 | 208 | 3.0 | 6.0 | 0.00 | 0.00 | 0.00 | 59 | 1008.9 |
| 20260505172849 | 50 | 210 | 4.0 | 5.0 | 0.00 | 0.00 | 0.00 | 58 | 1008.8 |
| 20260505172325 | 50 | 259 | 3.0 | 8.0 | 0.00 | 0.00 | 0.00 | 58 | 1008.6 |
| 20260505171839 | 50 | 247 | 4.0 | 8.0 | 0.00 | 0.00 | 0.00 | 56 | 1008.8 |
| 20260505171335 | 50 | 230 | 4.0 | 5.0 | 0.00 | 0.00 | 0.00 | 56 | 1008.8 |
| 20260505170824 | 51 | 284 | 4.0 | 6.0 | 0.00 | 0.00 | 0.00 | 54 | 1008.8 |
| 20260505170352 | 51 | 260 | 3.0 | 6.0 | 0.00 | 0.00 | 0.00 | 56 | 1008.7 |
| 20260505165824 | 51 | 248 | 3.0 | 5.0 | 0.00 | 0.00 | 0.00 | 54 | 1008.8 |
| 20260505165336 | 51 | 262 | 3.0 | 5.0 | 0.00 | 0.00 | 0.00 | 58 | 1008.8 |
| 20260505164830 | 50 | 244 | 2.0 | 6.0 | 0.00 | 0.00 | 0.00 | 58 | 1008.7 |
| 20260505164327 | 50 | 283 | 3.0 | 6.0 | 0.00 | 0.00 | 0.00 | 56 | 1008.7 |
| 20260505163822 | 50 | 254 | 3.0 | 5.0 | 0.00 | 0.00 | 0.00 | 55 | 1008.8 |
| 20260505163334 | 50 | 266 | 3.0 | 5.0 | 0.00 | 0.00 | 0.00 | 56 | 1008.8 |
| 20260505162823 | 50 | 299 | 3.0 | 7.0 | 0.00 | 0.00 | 0.00 | 57 | 1008.8 |
| 20260505162315 | 50 | 271 | 3.0 | 7.0 | 0.00 | 0.00 | 0.00 | 57 | 1008.7 |
| 20260505161832 | 50 | 277 | 4.0 | 7.0 | 0.00 | 0.00 | 0.00 | 56 | 1008.8 |
| 20260505161326 | 49 | 263 | 3.0 | 5.0 | 0.00 | 0.00 | 0.00 | 58 | 1008.9 |
| 20260505160823 | 49 | 265 | 3.0 | 6.0 | 0.00 | 0.00 | 0.00 | 59 | 1009.0 |
| 20260505160332 | 49 | 285 | 3.0 | 7.0 | 0.00 | 0.00 | 0.00 | 57 | 1009.0 |
| 20260505153321 | 48 | 254 | 3.0 | 7.0 | 0.00 | 0.00 | 0.00 | 61 | 1008.8 |
| 20260505152817 | 48 | 276 | 3.0 | 7.0 | 0.00 | 0.00 | 0.00 | 58 | 1008.9 |
| 20260505152335 | 48 | 257 | 4.0 | 7.0 | 0.00 | 0.00 | 0.00 | 56 | 1009.1 |
| 20260505151825 | 48 | 229 | 2.0 | 7.0 | 0.00 | 0.00 | 0.00 | 58 | 1008.9 |
| 20260505151333 | 48 | 258 | 3.0 | 5.0 | 0.00 | 0.00 | 0.00 | 58 | 1008.9 |
| 20260505150824 | 48 | 274 | 3.0 | 6.0 | 0.00 | 0.00 | 0.00 | 58 | 1008.9 |
| 20260505150318 | 47 | 273 | 2.0 | 7.0 | 0.00 | 0.00 | 0.00 | 59 | 1009.0 |
| 20260505140329 | 46 | 279 | 2.0 | 5.0 | 0.00 | 0.00 | 0.00 | 59 | 1008.8 |